IRIDIUM 33 DEB

Satellite information

Favourite Embed

Satellite Type and Status

DEBRISIN ORBIT

Key statistics

Satellite IRIDIUM 33 DEB at a glance.

Uptime

10099

Days in orbit

Revolutions

≈ 14.3

Per day

Orbit

LEO

Low Earth Orbit

Inclination

86.2

Latest

Satellite identification and parameters

Extended collection of information and parameters for IRIDIUM 33 DEB.

Object identification

Identified? True

Debris? True

Object name: IRIDIUM 33 DEB

International designator: 1997-051DG

Object number (NORAD): 34097

Object ID (CCSDS): 34097

Country: UNITED STATES OF AMERICA (US)

Current information (Y/N): Y

RCS size: SMALL

Orbital parameters

Period: 100.5 minutes

Inclination: 86.1954 deg

SMA: 7160.408 km

Apoapsis: 842.767 km

Periapsis: 721.779 km

RAAN: 97.6001 deg

Eccentricy: 0.0084484

Argument of periapsis: 352.7214 deg

Mean anomaly: 7.2747 deg

Mean motion: 14.32834626 rev/day

Mean motion (dot): 0.00005809 rev/day2

B* drag term: 0.0020407 1/REarth

Two-line elements (TLE)

Creation date: May 9, 2025, 2:46 a.m.

Reference frame: TEME

Reference center: EARTH

Epoch: May 8, 2025, 9:53 a.m. UTC

TLE line 0: 0 IRIDIUM 33 DEB

TLE line 1: 1 34097U 97051DG 25128.41229568 .00005809 00000-0 20407-2 0 9997

TLE line 2: 2 34097 86.1954 97.6001 0084484 352.7214 7.2747 14.32834626839919

Live tracking on map

Real-time ground track for satellite IRIDIUM 33 DEB.

In-orbit conjunctions

A list of the most updated potential collisions computed for object IRIDIUM 33 DEB.

Target Orbit TCA Probability of collision Miss distance Type
NOAA 16 DEB SSO 2025-05-07 07:27:16 0.0001145688 318.0 (m) DEBRIS
CZ-6A DEB LEO 2024-12-30 01:25:04 0.0001587036 144.0 (m) DEBRIS
CZ-6A DEB LEO 2024-12-27 12:57:24 0.0001670799 711.0 (m) DEBRIS
METEOR 2-7 LEO 2024-08-06 05:31:35 0.0001131003 869.0 (m) PAYLOAD

Associated space launch

Iridium provides global mobile telecommunications services using a constellation of 66 low earth orbit satellites in a 86.4° inclined orbit. Although 77 satellites were originally envisioned for the system and spawned the name based on the 77th element in the periodic table, the system has been scaled back. Motorola's Satellite Communications Group designed and manufactured the Iridium satellites with Lockheed Martin providing the LM-700A spacecraft buses.

IRIDIUM 33 DEB was lifted into orbit during the mission ‘Proton-K/17S40 | Iridium 27 to 33’, on board a Proton-K/17S40 space rocket.

The launch took place on Sept. 14, 1997, 1:36 a.m. from 81/23 (81L).

For more information about the launch, click the button.

Launch to space Proton-K/17S40 | Iridium 27 to 33
Proton-K/17S40 | Iridium 27 to 33

Agency: N/A

Status: Launch Successful

Launch date: Sept. 14, 1997, 1:36 a.m. UTC

Rocket: Proton-K/17S40

Launch pad: 81/23 (81L)

Location: Baikonur Cosmodrome, Republic of Kazakhstan

...

Latest news about this satellite

There are no fresh news available about this satellite. Check back as we update our databases every day.


Newsletter sign-up

Weekly statistics, charts and insights to help you stay on top of the space industry.